Regional Weather Roundup
Issued by NWS

Home | Current Version | Previous Version | Graphics & Text | Print | Product List | Glossary On
Versions: 1 2 3 4 5 6 7 8 9 10 11 12 13 14 15 16 17 18 19 20 21 22 23 24 25 26 27 28 29 30 31 32 33 34 35 36 37 38 39 40 41 42 43 44 45 46 47 48 49 50
000
ASUS43 KLMK 250910
RWRKY
KENTUCKY REGIONAL WEATHER ROUNDUP
NATIONAL WEATHER SERVICE LOUISVILLE KY
500 AM EDT MON SEP 25 2017

NOTE "FAIR" INDICATES FEW OR NO CLOUDS BELOW 12,000 FEET
WITH NO SIGNIFICANT WEATHER AND/OR OBSTRUCTIONS TO VISIBILITY.

KYZ001>023-026-027-061>063-070>075-251000-
WESTERN AND SOUTH CENTRAL KENTUCKY

CITY           SKY/WX    TMP DP  RH WIND       PRES   REMARKS
PADUCAH        CLEAR     65  62  90 CALM      29.98S
HENDERSON      PTCLDY    66  65  96 CALM      30.01R
OWENSBORO      CLEAR     69  67  93 CALM      30.01R
HOPKINSVILLE   CLEAR     70  70 100 CALM      30.00S
BOWLING GREEN  PTCLDY    67  66  97 CALM      30.02R FOG
GLASGOW        FOG      N/A N/A N/A CALM      30.02S VSB 1/2
$$

KYZ024-025-028>034-038-045-046-053-251000-
NORTH CENTRAL KENTUCKY

CITY           SKY/WX    TMP DP  RH WIND       PRES   REMARKS
LOUISVILLE/SDF MOCLDY    72  63  73 E3        30.01S
LOUISVILLE/LOU PTCLDY    65  65 100 CALM      30.02S
FORT KNOX      CLEAR     64  63  97 CALM      30.01R
$$

KYZ035>037-039>044-047>052-055>060-089>105-251000-
NORTHEAST KENTUCKY

CITY           SKY/WX    TMP DP  RH WIND       PRES   REMARKS
LEXINGTON      CLEAR     64  60  87 CALM      30.04S
COVINGTON      PTCLDY    67  62  84 N3        30.04R
FRANKFORT      CLEAR     63  59  87 CALM      30.02S
$$

KYZ054-064>069-076>088-106>120-251000-
SOUTHEAST KENTUCKY

CITY           SKY/WX    TMP DP  RH WIND       PRES   REMARKS
JACKSON        PTCLDY    67  61  81 E3        30.06R
LONDON         CLEAR     62  61  96 CALM      30.05R
SOMERSET       CLEAR     61  61 100 CALM      30.05S FOG
MIDDLESBORO    FOG       60  60 100 CALM      30.08R VSB 1/4
MONTICELLO     MOSUNNY   59  57  94 W9        30.06S FOG
$$




USA.gov is the U.S. government's official web portal to all federal, state and local government web resources and services.